Tiempo cada hora Dalaman

Hoy, 3 Diciembre, Jueves

Tiempo Temperatura Precipitaciones Viento Presión Humedad
00:00 +14°C° 0 mm 2 mps 763 mmHg 76%
01:00 +14°C° 0 mm 2 mps 763 mmHg 75%
02:00 +14°C° 0 mm 2 mps 763 mmHg 70%
03:00 +13°C° 0 mm 2 mps 763 mmHg 69%
04:00 +13°C° 0 mm 2 mps 763 mmHg 67%
05:00 +13°C° 0 mm 2 mps 763 mmHg 66%
06:00 +14°C° 0 mm 2 mps 763 mmHg 64%
07:00 +14°C° 0 mm 2 mps 763 mmHg 62%
08:00 +15°C° 0 mm 2 mps 763 mmHg 58%
09:00 +18°C° 0 mm 1 mps 763 mmHg 54%
10:00 +20°C° 0 mm 1 mps 763 mmHg 49%
11:00 +21°C° 0 mm 1 mps 763 mmHg 45%
12:00 +22°C° 0.1 mm 1 mps 762 mmHg 46%
13:00 +21°C° 0.1 mm 2 mps 762 mmHg 47%
14:00 +21°C° 0 mm 3 mps 761 mmHg 48%
15:00 +19°C° 0.2 mm 3 mps 761 mmHg 58%
16:00 +17°C° 0.2 mm 3 mps 762 mmHg 69%
17:00 +16°C° 0.2 mm 3 mps 762 mmHg 80%
18:00 +14°C° 0.5 mm 3 mps 761 mmHg 81%
19:00 +14°C° 0.5 mm 3 mps 761 mmHg 82%
20:00 +14°C° 0.5 mm 3 mps 761 mmHg 83%
21:00 +14°C° 0.2 mm 3 mps 761 mmHg 80%
22:00 +14°C° 0.2 mm 3 mps 761 mmHg 78%
23:00 +14°C° 0.2 mm 2 mps 762 mmHg 75%

Mañana, 4 Diciembre, Viernes

Tiempo Temperatura Precipitaciones Viento Presión Humedad
00:00 +14°C° 0 mm 2 mps 761 mmHg 74%
01:00 +14°C° 0 mm 2 mps 761 mmHg 72%
02:00 +14°C° 0 mm 2 mps 761 mmHg 71%
03:00 +14°C° 0 mm 2 mps 760 mmHg 71%
04:00 +13°C° 0 mm 3 mps 760 mmHg 70%
05:00 +13°C° 0 mm 3 mps 760 mmHg 70%
06:00 +13°C° 0.1 mm 3 mps 760 mmHg 68%
07:00 +14°C° 0.1 mm 3 mps 760 mmHg 66%
08:00 +14°C° 0.1 mm 3 mps 760 mmHg 65%
09:00 +17°C° 0.2 mm 3 mps 760 mmHg 59%
10:00 +19°C° 0.2 mm 4 mps 760 mmHg 53%
11:00 +20°C° 0.2 mm 4 mps 761 mmHg 48%
12:00 +20°C° 0.3 mm 4 mps 760 mmHg 50%
13:00 +20°C° 0.3 mm 4 mps 760 mmHg 52%
14:00 +20°C° 0.3 mm 4 mps 760 mmHg 55%
15:00 +19°C° 0.3 mm 4 mps 760 mmHg 61%
16:00 +17°C° 0.3 mm 4 mps 760 mmHg 67%
17:00 +15°C° 0.3 mm 4 mps 760 mmHg 72%
18:00 +16°C° 0.2 mm 3 mps 760 mmHg 72%
19:00 +16°C° 0.2 mm 3 mps 760 mmHg 73%
20:00 +14°C° 0.2 mm 3 mps 761 mmHg 73%
21:00 +14°C° 0.2 mm 3 mps 761 mmHg 72%
22:00 +14°C° 0.2 mm 3 mps 761 mmHg 72%
23:00 +14°C° 0.2 mm 3 mps 761 mmHg 72%

Pasado mañana, 5 Diciembre, Sábado

Tiempo Temperatura Precipitaciones Viento Presión Humedad
00:00 +15°C° 0.2 mm 2 mps 761 mmHg 72%
01:00 +15°C° 0.2 mm 2 mps 761 mmHg 71%
02:00 +15°C° 0.2 mm 2 mps 761 mmHg 71%
03:00 +15°C° 0.1 mm 2 mps 761 mmHg 71%
04:00 +15°C° 0.1 mm 2 mps 761 mmHg 71%
05:00 +14°C° 0.1 mm 2 mps 761 mmHg 71%
06:00 +15°C° 0.1 mm 2 mps 761 mmHg 70%
07:00 +15°C° 0.1 mm 2 mps 761 mmHg 68%
08:00 +15°C° 0.1 mm 2 mps 761 mmHg 67%
09:00 +17°C° 0.1 mm 2 mps 761 mmHg 61%
10:00 +20°C° 0.1 mm 1 mps 761 mmHg 56%
11:00 +22°C° 0.1 mm 1 mps 761 mmHg 50%
12:00 +22°C° 0.1 mm 1 mps 761 mmHg 51%
13:00 +21°C° 0.1 mm 2 mps 760 mmHg 52%
14:00 +21°C° 0.1 mm 2 mps 760 mmHg 52%
15:00 +19°C° 0.2 mm 2 mps 760 mmHg 61%
16:00 +19°C° 0.2 mm 1 mps 760 mmHg 69%
17:00 +18°C° 0.2 mm 1 mps 760 mmHg 78%
18:00 +16°C° 0.1 mm 1 mps 761 mmHg 78%
19:00 +16°C° 0.1 mm 1 mps 761 mmHg 79%
20:00 +16°C° 0.1 mm 1 mps 761 mmHg 80%
21:00 +15°C° 0.2 mm 1 mps 761 mmHg 79%
22:00 +15°C° 0.2 mm 1 mps 761 mmHg 78%
23:00 +15°C° 0.2 mm 1 mps 761 mmHg 78%

6 Diciembre, Domingo

Tiempo Temperatura Precipitaciones Viento Presión Humedad
00:00 +15°C° 0.1 mm 1 mps 761 mmHg 77%
01:00 +15°C° 0.1 mm 1 mps 762 mmHg 76%
02:00 +15°C° 0.1 mm 1 mps 762 mmHg 75%
03:00 +15°C° 0 mm 1 mps 761 mmHg 75%
04:00 +15°C° 0 mm 1 mps 761 mmHg 74%
05:00 +14°C° 0 mm 2 mps 761 mmHg 74%
06:00 +15°C° 0 mm 2 mps 761 mmHg 71%
07:00 +15°C° 0 mm 2 mps 761 mmHg 69%
08:00 +15°C° 0 mm 2 mps 761 mmHg 67%
09:00 +18°C° 0 mm 1 mps 761 mmHg 61%
10:00 +20°C° 0 mm 1 mps 761 mmHg 56%
11:00 +22°C° 0 mm 1 mps 761 mmHg 51%
12:00 +22°C° 0 mm 1 mps 761 mmHg 50%
13:00 +22°C° 0 mm 1 mps 760 mmHg 50%
14:00 +21°C° 0 mm 2 mps 760 mmHg 50%
15:00 +21°C° 0 mm 1 mps 760 mmHg 60%
16:00 +19°C° 0 mm 1 mps 760 mmHg 69%
17:00 +16°C° 0 mm 1 mps 760 mmHg 79%
18:00 +16°C° 0 mm 1 mps 760 mmHg 80%
19:00 +15°C° 0 mm 1 mps 760 mmHg 82%
20:00 +15°C° 0 mm 1 mps 760 mmHg 84%
21:00 +15°C° 0 mm 2 mps 761 mmHg 83%
22:00 +15°C° 0 mm 2 mps 761 mmHg 83%
23:00 +15°C° 0 mm 2 mps 761 mmHg 82%

7 Diciembre, Lunes

Tiempo Temperatura Precipitaciones Viento Presión Humedad
00:00 +14°C° 0 mm 2 mps 761 mmHg 83%
01:00 +14°C° 0 mm 2 mps 761 mmHg 83%
02:00 +14°C° 0 mm 2 mps 761 mmHg 84%
03:00 +14°C° 0 mm 2 mps 761 mmHg 84%
04:00 +14°C° 0 mm 2 mps 761 mmHg 84%
05:00 +13°C° 0 mm 3 mps 761 mmHg 84%
06:00 +14°C° 0 mm 3 mps 761 mmHg 81%
07:00 +14°C° 0 mm 3 mps 761 mmHg 78%
08:00 +16°C° 0 mm 3 mps 761 mmHg 75%
09:00 +17°C° 0.1 mm 4 mps 761 mmHg 68%
10:00 +19°C° 0.1 mm 5 mps 760 mmHg 61%
11:00 +20°C° 0.1 mm 6 mps 760 mmHg 54%
12:00 +20°C° 0.1 mm 6 mps 760 mmHg 54%
13:00 +21°C° 0.1 mm 7 mps 760 mmHg 54%
14:00 +21°C° 0.1 mm 7 mps 759 mmHg 54%
15:00 +20°C° 0.2 mm 7 mps 759 mmHg 59%
16:00 +19°C° 0.2 mm 6 mps 759 mmHg 64%
17:00 +17°C° 0.2 mm 6 mps 760 mmHg 69%
18:00 +17°C° 0.4 mm 6 mps 760 mmHg 69%
19:00 +17°C° 0.4 mm 6 mps 760 mmHg 69%
20:00 +17°C° 0.4 mm 6 mps 760 mmHg 69%
21:00 +16°C° 0.7 mm 6 mps 760 mmHg 70%
22:00 +16°C° 0.7 mm 6 mps 760 mmHg 71%
23:00 +16°C° 0.7 mm 6 mps 760 mmHg 72%

8 Diciembre, Martes

Tiempo Temperatura Precipitaciones Viento Presión Humedad
00:00 +16°C° 0.9 mm 6 mps 760 mmHg 74%
01:00 +15°C° 0.9 mm 6 mps 760 mmHg 75%
02:00 +15°C° 0.9 mm 6 mps 759 mmHg 77%
03:00 +15°C° 1 mm 6 mps 759 mmHg 77%
04:00 +15°C° 1 mm 5 mps 759 mmHg 78%
05:00 +15°C° 1 mm 5 mps 759 mmHg 79%
06:00 +15°C° 0.7 mm 5 mps 759 mmHg 80%
07:00 +15°C° 0.7 mm 4 mps 759 mmHg 81%
08:00 +15°C° 0.7 mm 4 mps 759 mmHg 82%
09:00 +17°C° 0.8 mm 4 mps 759 mmHg 79%
10:00 +18°C° 0.8 mm 3 mps 759 mmHg 77%
11:00 +19°C° 0.8 mm 3 mps 760 mmHg 74%
12:00 +19°C° 0.5 mm 3 mps 759 mmHg 73%
13:00 +19°C° 0.5 mm 3 mps 759 mmHg 71%
14:00 +19°C° 0.5 mm 3 mps 759 mmHg 69%
15:00 +18°C° 0.1 mm 3 mps 759 mmHg 74%
16:00 +17°C° 0.1 mm 3 mps 759 mmHg 79%
17:00 +14°C° 0.1 mm 3 mps 759 mmHg 85%
18:00 +14°C° 0 mm 3 mps 760 mmHg 85%
19:00 +14°C° 0 mm 2 mps 760 mmHg 85%
20:00 +14°C° 0 mm 2 mps 760 mmHg 86%
21:00 +14°C° 0 mm 2 mps 761 mmHg 85%
22:00 +13°C° 0 mm 2 mps 761 mmHg 84%
23:00 +13°C° 0 mm 2 mps 761 mmHg 83%
Mostrar más

Necesitamos Su Consentimiento

Meteoprog y nuestros Proveedores de Servicios pueden almacenar y acceder a sus datos personales como cookies, identificadores de dispositivo u otras tecnologías similares de su dispositivo y procesar dichos datos para personalizar contenido y anuncios, además de ofrecer funciones de redes sociales y analizar el tráfico.

  • Almacenar y/o acceder a información en su dispositivo

    Se puede almacenar o acceder a cookies, identificadores de dispositivo u otra información de su dispositivo para los fines anteriormente indicados.

  • Anuncios y contenido personalizados, medición de anuncios y contenido, percepciones del público, y desarrollo de productos

    Los anuncios y el contenido pueden personalizarse en base a su perfil. Se pueden añadir más datos para personalizar mejor los anuncios y contenidos. Se puede medir el rendimiento de los anuncios y contenidos. Se puede obtener la percepción sobre el público que ha visto los anuncios y contenidos. Dichos datos pueden usarse para desarrollar o mejorar la experiencia del usuario, sistemas y software.

Al hacer clic en ‘Estoy De Acuerdo’ usted permitirá el uso de las cookies, identificadores de dispositivo, balizas web u otras tecnologías similares indicadas. Su configuración puede cambiarse desde el navegador de su dispositivo.

Para ciertos fines, los intereses legítimos pueden ser considerados por encima del consentimiento. Puede leer más sobre ello en nuestra Política de Privacidad y Cookies.